Weather in Berezdiv

Ukraine / Khmelnitsky District     50°27′20″N   27°07′09″E
temp.,
°C
wind,
m/s
gust,
m/s
humid.,
%
clouds,
%
prec.,
mm/h
press.,
hPa
HPBL,
m
8 may, sat
sat800:00+8w3795100 0.1 1007150
03:00+7wnw5897100 1.0 1008339
06:00+6wnw51190100 2.8 1010762
09:00+4w81296100 3.3 1013852
12:00+4wnw9149092 0.4 10151074
15:00+7wnw7107398 0.6 10171368
18:00+9nw7106619 0.6 10181508
21:00+4nw34825 0.6 102054
9 may, sun
sun900:00+2w22905 0.0 102226
03:00+2w36922 0.0 102391
06:00+1w35955 0.0 102589
09:00+7wnw35723 0.0 1026438
12:00+11wnw34525 0.0 10261457
15:00+13wsw23437 0.0 10261911
18:00+14w13439 0.0 10251767
21:00+8ese33605 0.0 102627
10 may, mon
mon1000:00+6sse476511 0.0 102794
03:00+5sse48694 0.0 1027135
06:00+5sse47735 0.0 1027115
09:00+11sse59605 0.0 1028401
12:00+15se78495 0.0 10271234
15:00+17sse78465 0.0 10261411
18:00+17se57578 0.0 10251038
21:00+11se4107717 0.0 1025157
11 may, tue
tue1100:00+9se512815 0.0 1026221
03:00+8se513805 0.0 1026255
06:00+6se512850 0.0 1026227
09:00+12se610660 0.0 1026462
12:00+16se68470 0.0 10251075
15:00+18ese67440 0.0 10231268
18:00+17ese57560 0.0 10221092
21:00+11ese49800 0.0 1021137
12 may, wed
wed1200:00+9ese411850 0.0 1021190
03:00+8ese49940 0.0 1020174
06:00+8ese499717 0.0 1019190
09:00+13ese57760 0.0 1018528
12:00+16ese67575 0.0 10171165
15:00+14ese5771100 0.0 1016632
18:00+10ese5109095 0.3 1016564
21:00+9e411905 0.3 1015268